Back to catalog

SL-14 DEB

AlivePO
NORAD 45316·DEBRIS·🇷🇺 Russia

Launched Aug 15, 1991 from Plesetsk Cosmodrome

Loading…

Next Passes (next 24 hours)

TLE

FreshSource: Space-Track

Epoch: Sep 14, 2026, 09:09 UTC

1 45316U 91056BE  26257.38152536  .00001009  00000-0  19615-2 0  9999
2 45316  82.5949  47.4950 0106285 109.7407 251.5226 13.33401595318938

Track SL-14 DEB in real time with AllMySat

Download on the App Store